Weather History for KBMQ - January, 2014

Change the Weather History Date:

Saturday, January 4, 2014

  Actual Average Record
Temperature  
Mean Temperature 55 °F -  
Max Temperature 68 °F 58 °F 78 °F (1997)
Min Temperature 42 °F 37 °F 24 °F (1999)
Degree Days  
Heating Degree Days 10    
Growing Degree Days 5 (Base 50)    
Moisture  
Dew Point 44 °F    
Average Humidity 69    
Maximum Humidity 90    
Minimum Humidity 43    
Precipitation  
Precipitation 0.00 in - - ()
Sea Level Pressure  
Sea Level Pressure 29.92 in    
Wind  
Wind Speed 10 mph (South)    
Max Wind Speed 20 mph    
Max Gust Speed 28 mph    
Visibility 10 miles    
Events      
Averages and records for this station are not official NWS values.
T = Trace of Precipitation, MM = Missing Value Source: NWS Daily Summary

Daily Weather History Graph

Daily Weather History Graph

Search for Another Location

Airport or City:

Trip Planner

Search our weather history database for the weather conditions in past years. The results will help you decide how hot, cold, wet, or windy it might be!

Date:

Astronomy

Jan. 04, 2014 Rise Set
Actual Time 7:31 AM CST 5:44 PM CST
Civil Twilight 7:04 AM CST 6:11 PM CST
Nautical Twilight 6:34 AM CST 6:41 PM CST
Astronomical Twilight 6:05 AM CST 7:10 PM CST
Moon 9:53 AM CST (1/4) 9:47 PM CST (1/4)
Length of Visible Light 11h 06m
Length of Day
10h 13m
Waxing Crescent, 15% of the Moon is Illuminated
Jan 4
Waxing Crescent
Jan 7
First Quarter
Jan 15
Full
Jan 23
Last Quarter
Jan 30
New

Hourly Weather History & Observations

Time (CST) Temp. Windchill Dew Point Humidity Pressure Visibility Wind Dir Wind Speed Gust Speed Precip Events Conditions
12:53 AM 42.1 °F 36.1 °F 37.0 °F 82% 30.06 in 10.0 mi South 10.4 mph 18.4 mph N/A   Clear
1:53 AM 42.1 °F 36.6 °F 37.9 °F 85% 30.05 in 10.0 mi South 9.2 mph - N/A   Clear
2:53 AM 42.1 °F 36.6 °F 37.9 °F 85% 30.04 in 10.0 mi SSW 9.2 mph - N/A   Clear
3:53 AM 42.1 °F 36.6 °F 39.0 °F 89% 30.03 in 10.0 mi South 9.2 mph - N/A   Mostly Cloudy
4:53 AM 43.0 °F 38.8 °F 39.9 °F 89% 30.01 in 10.0 mi South 6.9 mph - N/A   Scattered Clouds
5:17 AM 45.0 °F 41.2 °F 41.0 °F 86% 30.01 in 10.0 mi South 6.9 mph - N/A   Mostly Cloudy
5:53 AM 45.0 °F 40.6 °F 42.1 °F 90% 30.01 in 10.0 mi South 8.1 mph - N/A   Mostly Cloudy
6:53 AM 46.0 °F 41.9 °F 43.0 °F 89% 30.00 in 10.0 mi South 8.1 mph - N/A   Overcast
7:53 AM 48.0 °F - 44.1 °F 86% 30.00 in 10.0 mi South 9.2 mph - N/A   Mostly Cloudy
8:53 AM 51.1 °F - 46.0 °F 83% 30.01 in 10.0 mi South 8.1 mph - N/A   Partly Cloudy
9:53 AM 55.0 °F - 46.9 °F 74% 30.01 in 10.0 mi SSW 12.7 mph 23.0 mph N/A   Clear
10:53 AM 60.1 °F - 46.0 °F 60% 29.99 in 10.0 mi South 16.1 mph 24.2 mph N/A   Clear
11:53 AM 63.0 °F - 45.0 °F 52% 29.94 in 10.0 mi South 16.1 mph 25.3 mph N/A   Clear
12:53 PM 66.0 °F - 43.0 °F 43% 29.88 in 10.0 mi SSW 19.6 mph 27.6 mph N/A   Clear
1:53 PM 66.9 °F - 44.1 °F 44% 29.84 in 10.0 mi SSW 13.8 mph 25.3 mph N/A   Clear
2:53 PM 68.0 °F - 45.0 °F 43% 29.82 in 10.0 mi South 12.7 mph 20.7 mph N/A   Clear
3:53 PM 66.9 °F - 46.0 °F 47% 29.81 in 10.0 mi South 12.7 mph 21.9 mph N/A   Clear
4:53 PM 66.0 °F - 46.0 °F 48% 29.82 in 10.0 mi South 11.5 mph 20.7 mph N/A   Clear
5:53 PM 63.0 °F - 46.0 °F 54% 29.83 in 10.0 mi South 9.2 mph - N/A   Clear
6:53 PM 60.1 °F - 46.0 °F 60% 29.83 in 10.0 mi South 10.4 mph - N/A   Clear
7:53 PM 59.0 °F - 46.0 °F 62% 29.83 in 10.0 mi South 8.1 mph - N/A   Clear
8:53 PM 57.9 °F - 46.0 °F 65% 29.81 in 10.0 mi South 5.8 mph - N/A   Clear
9:53 PM 57.0 °F - 46.9 °F 69% 29.82 in 10.0 mi South 4.6 mph - N/A   Clear
10:53 PM 57.0 °F - 48.0 °F 72% 29.79 in 10.0 mi South 5.8 mph - N/A   Clear
11:53 PM 57.0 °F - 48.0 °F 72% 29.78 in 10.0 mi South 9.2 mph - N/A   Clear